When you browse on this site, cookies collect data to enhance your experience and personalize the content and advertising you see.
Visit our Privacy Policy to learn more. By continuing to use the site, you agree to this use of cookies and data.
  • In Österreich
  • Länderverzeichnis
  • Für 7 Tage
  • Wassertemperatur
  • Satellitenkarten
  • Wetterkarte
  • News
  • Widgets
  • user-avatar
    Anmelden

    Stündliche Wetter Sölden

    Heute, 19 Mai, Sonntag

    Zeit Temperatur Niederschläge Wind Luftdruck Luftfeuchtigkeit
    00:00 0°C° 0.2 mm 1 m/S 574 mmHg 90%
    01:00 0°C° 0 mm 1 m/S 574 mmHg 90%
    02:00 0°C° 0.4 mm 1 m/S 574 mmHg 90%
    03:00 0°C° 0.4 mm 1 m/S 574 mmHg 89%
    04:00 0°C° 0.4 mm 1 m/S 574 mmHg 89%
    05:00 0°C° 0.3 mm 1 m/S 574 mmHg 86%
    06:00 +1°C° 0.3 mm 1 m/S 574 mmHg 84%
    07:00 +2°C° 0 mm 1 m/S 575 mmHg 85%
    08:00 +3°C° 0.5 mm 1 m/S 575 mmHg 83%
    09:00 +4°C° 0.5 mm 1 m/S 575 mmHg 81%
    10:00 +4°C° 0.5 mm 1 m/S 575 mmHg 79%
    11:00 +5°C° 0.3 mm 1 m/S 576 mmHg 77%
    12:00 +6°C° 0.3 mm 1 m/S 576 mmHg 75%
    13:00 +5°C° 0 mm 2 m/S 576 mmHg 73%
    14:00 +5°C° 0.2 mm 2 m/S 576 mmHg 73%
    15:00 +5°C° 0.2 mm 2 m/S 576 mmHg 73%
    16:00 +6°C° 0.2 mm 1 m/S 576 mmHg 73%
    17:00 +5°C° 0.1 mm 1 m/S 575 mmHg 77%
    18:00 +4°C° 0.1 mm 1 m/S 575 mmHg 82%
    19:00 +3°C° 0.1 mm 1 m/S 574 mmHg 86%
    20:00 +2°C° 0.1 mm 1 m/S 574 mmHg 89%
    21:00 +1°C° 0.1 mm 1 m/S 573 mmHg 91%
    22:00 0°C° 0.1 mm 1 m/S 573 mmHg 93%
    23:00 0°C° 0.1 mm 1 m/S 573 mmHg 92%

    Morgen, 20 Mai, Montag

    Zeit Temperatur Niederschläge Wind Luftdruck Luftfeuchtigkeit
    00:00 0°C° 0.1 mm 1 m/S 573 mmHg 92%
    01:00 -1°C° 0.1 mm 0 m/S 573 mmHg 91%
    02:00 -1°C° 0.4 mm 0 m/S 573 mmHg 91%
    03:00 -1°C° 0.4 mm 0 m/S 573 mmHg 90%
    04:00 -1°C° 0.4 mm 0 m/S 573 mmHg 90%
    05:00 -1°C° 1.1 mm 0 m/S 573 mmHg 90%
    06:00 0°C° 1.1 mm 0 m/S 573 mmHg 90%
    07:00 0°C° 1.1 mm 0 m/S 573 mmHg 90%
    08:00 +1°C° 1.4 mm 0 m/S 574 mmHg 89%
    09:00 +1°C° 1.4 mm 0 m/S 574 mmHg 89%
    10:00 +3°C° 1.4 mm 1 m/S 574 mmHg 88%
    11:00 +3°C° 1.2 mm 1 m/S 575 mmHg 85%
    12:00 +4°C° 1.2 mm 1 m/S 575 mmHg 82%
    13:00 +5°C° 1.2 mm 1 m/S 576 mmHg 79%
    14:00 +5°C° 1.1 mm 1 m/S 576 mmHg 80%
    15:00 +5°C° 1.1 mm 1 m/S 576 mmHg 81%
    16:00 +4°C° 1.1 mm 1 m/S 576 mmHg 81%
    17:00 +4°C° 1.3 mm 1 m/S 576 mmHg 85%
    18:00 +3°C° 1.3 mm 1 m/S 575 mmHg 88%
    19:00 +2°C° 1.3 mm 1 m/S 575 mmHg 92%
    20:00 +2°C° 1.4 mm 1 m/S 575 mmHg 92%
    21:00 +1°C° 1.4 mm 1 m/S 575 mmHg 93%
    22:00 +1°C° 1.4 mm 1 m/S 576 mmHg 93%
    23:00 +1°C° 0.5 mm 1 m/S 576 mmHg 93%

    übermorgen, 21 Mai, Dienstag

    Zeit Temperatur Niederschläge Wind Luftdruck Luftfeuchtigkeit
    00:00 0°C° 0.5 mm 1 m/S 576 mmHg 93%
    01:00 0°C° 0.5 mm 1 m/S 576 mmHg 92%
    02:00 0°C° 0.4 mm 1 m/S 576 mmHg 92%
    03:00 0°C° 0.4 mm 1 m/S 576 mmHg 92%
    04:00 0°C° 0.4 mm 1 m/S 576 mmHg 92%
    05:00 +1°C° 0.3 mm 1 m/S 576 mmHg 91%
    06:00 +2°C° 0.3 mm 1 m/S 577 mmHg 90%
    07:00 +3°C° 0.3 mm 1 m/S 578 mmHg 89%
    08:00 +4°C° 0.2 mm 1 m/S 579 mmHg 84%
    09:00 +6°C° 0.2 mm 1 m/S 580 mmHg 78%
    10:00 +7°C° 0.2 mm 1 m/S 581 mmHg 72%
    11:00 +8°C° 0.2 mm 1 m/S 581 mmHg 70%
    12:00 +8°C° 0.2 mm 1 m/S 581 mmHg 69%
    13:00 +9°C° 0.2 mm 1 m/S 582 mmHg 67%
    14:00 +9°C° 0.1 mm 1 m/S 582 mmHg 67%
    15:00 +9°C° 0.1 mm 1 m/S 582 mmHg 67%
    16:00 +9°C° 0.1 mm 1 m/S 582 mmHg 67%
    17:00 +7°C° 0.1 mm 1 m/S 582 mmHg 72%
    18:00 +6°C° 0.1 mm 1 m/S 581 mmHg 77%
    19:00 +5°C° 0.1 mm 1 m/S 581 mmHg 82%
    20:00 +4°C° 0.1 mm 1 m/S 581 mmHg 83%
    21:00 +3°C° 0.1 mm 1 m/S 581 mmHg 85%
    22:00 +1°C° 0.1 mm 2 m/S 581 mmHg 86%
    23:00 -1°C° 0.1 mm 2 m/S 581 mmHg 87%

    22 Mai, Mittwoch

    Zeit Temperatur Niederschläge Wind Luftdruck Luftfeuchtigkeit
    00:00 -1°C° 0.1 mm 2 m/S 580 mmHg 87%
    01:00 -1°C° 0.1 mm 2 m/S 580 mmHg 88%
    02:00 -1°C° 0.1 mm 2 m/S 580 mmHg 87%
    03:00 -2°C° 0.1 mm 2 m/S 580 mmHg 87%
    04:00 -2°C° 0.1 mm 2 m/S 580 mmHg 86%
    05:00 +1°C° 0.1 mm 2 m/S 581 mmHg 83%
    06:00 +3°C° 0.1 mm 1 m/S 582 mmHg 80%
    07:00 +4°C° 0.1 mm 1 m/S 582 mmHg 77%
    08:00 +6°C° 0.1 mm 1 m/S 583 mmHg 72%
    09:00 +8°C° 0.1 mm 1 m/S 585 mmHg 67%
    10:00 +10°C° 0.1 mm 1 m/S 586 mmHg 63%
    11:00 +10°C° 0.3 mm 1 m/S 586 mmHg 62%
    12:00 +11°C° 0.3 mm 1 m/S 586 mmHg 62%
    13:00 +11°C° 0.3 mm 1 m/S 586 mmHg 61%
    14:00 +10°C° 0.3 mm 1 m/S 586 mmHg 63%
    15:00 +10°C° 0.3 mm 1 m/S 585 mmHg 64%
    16:00 +9°C° 0.3 mm 1 m/S 585 mmHg 66%
    17:00 +8°C° 0.1 mm 1 m/S 584 mmHg 70%
    18:00 +7°C° 0.1 mm 1 m/S 584 mmHg 75%
    19:00 +6°C° 0.1 mm 1 m/S 584 mmHg 79%
    20:00 +4°C° 0.1 mm 2 m/S 583 mmHg 82%
    21:00 +2°C° 0.1 mm 2 m/S 583 mmHg 84%
    22:00 +1°C° 0.1 mm 2 m/S 583 mmHg 87%
    23:00 +1°C° 0 mm 2 m/S 583 mmHg 87%

    23 Mai, Donnerstag

    Zeit Temperatur Niederschläge Wind Luftdruck Luftfeuchtigkeit
    00:00 -1°C° 0 mm 2 m/S 582 mmHg 87%
    01:00 -1°C° 0 mm 2 m/S 582 mmHg 88%
    02:00 -2°C° 0 mm 2 m/S 582 mmHg 88%
    03:00 -2°C° 0 mm 2 m/S 582 mmHg 88%
    04:00 -2°C° 0 mm 2 m/S 582 mmHg 88%
    05:00 -1°C° 0 mm 2 m/S 582 mmHg 84%
    06:00 +3°C° 0 mm 1 m/S 583 mmHg 79%
    07:00 +4°C° 0 mm 1 m/S 584 mmHg 75%
    08:00 +6°C° 0 mm 1 m/S 585 mmHg 70%
    09:00 +8°C° 0 mm 1 m/S 585 mmHg 65%
    10:00 +10°C° 0 mm 1 m/S 586 mmHg 60%
    11:00 +11°C° 0.1 mm 1 m/S 587 mmHg 58%
    12:00 +12°C° 0.1 mm 1 m/S 587 mmHg 57%
    13:00 +12°C° 0.1 mm 1 m/S 587 mmHg 55%
    14:00 +12°C° 0.2 mm 1 m/S 587 mmHg 56%
    15:00 +12°C° 0.2 mm 1 m/S 586 mmHg 57%
    16:00 +11°C° 0.2 mm 1 m/S 586 mmHg 58%
    17:00 +10°C° 0.1 mm 1 m/S 585 mmHg 64%
    18:00 +8°C° 0.1 mm 1 m/S 584 mmHg 70%
    19:00 +7°C° 0.1 mm 1 m/S 584 mmHg 76%
    20:00 +6°C° 0 mm 1 m/S 583 mmHg 80%
    21:00 +4°C° 0 mm 1 m/S 583 mmHg 83%
    22:00 +2°C° 0 mm 2 m/S 583 mmHg 86%
    23:00 +1°C° 0 mm 2 m/S 582 mmHg 86%

    24 Mai, Freitag

    Zeit Temperatur Niederschläge Wind Luftdruck Luftfeuchtigkeit
    00:00 +1°C° 0 mm 2 m/S 582 mmHg 87%
    01:00 -1°C° 0 mm 2 m/S 582 mmHg 87%
    02:00 -1°C° 0 mm 2 m/S 581 mmHg 86%
    03:00 -2°C° 0 mm 2 m/S 581 mmHg 86%
    04:00 -2°C° 0 mm 2 m/S 581 mmHg 85%
    05:00 +2°C° 0 mm 1 m/S 582 mmHg 79%
    06:00 +4°C° 0 mm 1 m/S 583 mmHg 73%
    07:00 +6°C° 0 mm 1 m/S 583 mmHg 66%
    08:00 +8°C° 0 mm 1 m/S 584 mmHg 61%
    09:00 +9°C° 0 mm 1 m/S 585 mmHg 55%
    10:00 +11°C° 0 mm 1 m/S 585 mmHg 50%
    11:00 +12°C° 0 mm 1 m/S 585 mmHg 48%
    12:00 +12°C° 0 mm 1 m/S 585 mmHg 47%
    13:00 +13°C° 0 mm 1 m/S 585 mmHg 46%
    14:00 +13°C° 0.1 mm 1 m/S 585 mmHg 48%
    15:00 +12°C° 0.1 mm 1 m/S 584 mmHg 49%
    16:00 +12°C° 0.1 mm 1 m/S 584 mmHg 51%
    17:00 +11°C° 0.4 mm 1 m/S 583 mmHg 61%
    18:00 +9°C° 0.4 mm 1 m/S 582 mmHg 70%
    19:00 +7°C° 0.4 mm 1 m/S 581 mmHg 80%
    20:00 +6°C° 0.9 mm 1 m/S 580 mmHg 84%
    21:00 +5°C° 0.9 mm 1 m/S 580 mmHg 88%
    22:00 +3°C° 0.9 mm 0 m/S 579 mmHg 93%
    23:00 +4°C° 1.6 mm 1 m/S 579 mmHg 94%
    Mehr zeigen